Starlink 4312

operational
NORAD ID: 53065 Int'l Des: 2022-077 Owner: SPXS Country: US Constellation: starlink
LEOCIRCULARRETROGRADESSO

Starlink 4312について

説明を読み込み中...

リアルタイム位置

3D地球を読み込み中...

次回通過

高度履歴

Altitude vs Time

uPlot chart will show altitude changes over time

軌道要素

1 53065U 22077Y 26061.07776553 .00000996 00000-0 82039-4 0 9992
2 53065 97.6020 242.7566 0001429 201.9310 158.1853 15.01262956199770
Epoch: Mar 2, 2026 • Age: 31 hours

現在のステータス

高度 566.3 km
速度 7.58 km/s
衛星直下点 11.58°N, 19.36°W
打ち上げ日 Jul 11, 2022
運用期間 3.6 years
タイプ internet

技術仕様

分類 Payload
質量 297.00 kg
乾燥質量 275.00 kg
総質量 297.00 kg
長さ 0.20 m
直径 2.80 m
スパン 9.00 m
形状 Box + pan
製造者 SPXS
バスタイプ Starlink
フェーズステータス In Orbit
所有者/国 SPXS/US

大規模コンステレーション

Loading constellations...